This demonstration page uses our WeatherBlox Daily Observations layout. Learn more.

Left ArrowRight Arrow

Hourly Observations for December 1, 2022

Temp ( °F °C ) Dew Point ( °F °C ) Humidity (%) Winds ( mph kmh ) Pressure ( in mb ) Visibility ( mi km ) Precip ( " mm )
12:53 am 00:53 Clear 13 -10.6 10 -12.2 88 88 W 8 13 29.74 1007 10 16 0.00 0.00
1:53 am 01:53 Clear 13 -10.6 9 -12.8 84 84 WNW 7 11 29.78 1008 10 16 0.00 0.00
2:16 am 02:16 Mostly Cloudy 13 -10.6 8 -13.3 80 80 WNW 10 17 29.88 1012 10 16 0.00 0.00
2:23 am 02:23 Mostly Cloudy 13 -10.6 7 -13.9 77 77 NW 14 22 29.88 1012 10 16 0.00 0.00
2:40 am 02:40 Mostly Cloudy 12 -11.1 7 -13.9 80 80 NW 13 20 29.88 1012 10 16 0.00 0.00
2:53 am 02:53 Cloudy 11 -11.7 6 -14.4 80 80 NNW 12 19 29.78 1008 10 16 0.00 0.00
3:13 am 03:13 Mostly Cloudy 11 -11.7 5 -15 76 76 WNW 9 15 29.90 1012 10 16 0.00 0.00
3:35 am 03:35 Cloudy 11 -11.7 5 -15 76 76 NW 14 22 29.92 1013 10 16 0.00 0.00
3:53 am 03:53 Cloudy 10 -12.2 4 -15.6 76 76 NW 13 20 29.80 1009 10 16 0.00 0.00
4:53 am 04:53 Cloudy with Light Snow 8 -13.3 4 -15.6 83 83 NW 8 13 29.80 1009 6 10 0.01 0.13
5:25 am 05:25 Cloudy 8 -13.3 3 -16.1 79 79 NW 10 17 29.94 1014 10 16 0.01 0.13
5:38 am 05:38 Cloudy 8 -13.3 3 -16.1 79 79 WNW 9 15 29.94 1014 10 16 0.01 0.13
5:53 am 05:53 Cloudy 8 -13.3 3 -16.1 79 79 NW 10 17 29.82 1010 10 16 0.01 0.13
6:48 am 06:48 Cloudy 9 -13 1 -17 72 72 NNW 3 6 29.90 1013 10 16 0.00 0.00
6:53 am 06:53 Cloudy 8 -13.3 1 -17.2 72 72 NW 5 7 29.79 1009 10 16 0.00 0.00
7:19 am 07:19 Cloudy with Light Snow 8 -13.3 2 -16.7 75 75 WNW 8 13 29.93 1013 2 3 0.01 0.13
7:27 am 07:27 Cloudy with Light Snow 8 -13.3 3 -16.1 79 79 NW 10 17 29.93 1013 3 5 0.01 0.13
7:34 am 07:34 Cloudy with Light Snow 8 -13.3 3 -16.1 79 79 NW 12 19 29.93 1013 5 8 0.01 0.13
7:53 am 07:53 Cloudy 7 -13.9 3 -16.1 83 83 WNW 9 15 29.82 1010 10 16 0.01 0.13
8:15 am 08:15 Cloudy 8 -13.3 2 -16.7 75 75 NW 10 17 29.94 1014 10 16 0.00 0.00
8:53 am 08:53 Cloudy 8 -13.3 2 -16.7 75 75 WNW 6 9 29.81 1009 10 16 0.00 0.00
9:53 am 09:53 Cloudy with Light Snow 7 -13.9 1 -17.2 76 76 WNW 10 17 29.83 1010 4 6 0.01 0.13
10:04 am 10:04 Cloudy with Light Snow 6 -14.4 2 -16.7 83 83 WNW 9 15 29.95 1014 2 3 0.01 0.25
10:13 am 10:13 Cloudy with Light Snow 6 -14.4 2 -16.7 83 83 WNW 12 19 29.96 1015 1 2 0.01 0.25
10:26 am 10:26 Cloudy with Light Snow 6 -14.4 1 -17.2 79 79 NW 8 13 29.95 1014 2 2 0.01 0.25
10:53 am 10:53 Cloudy with Light Snow 6 -14.4 1 -17.2 79 79 NW 9 15 29.83 1010 3 4 0.02 0.51
11:06 am 11:06 Cloudy with Light Snow 6 -14.4 0 -17.8 75 75 NW 10 17 29.96 1015 2 3 0.01 0.13
11:12 am 11:12 Cloudy with Light Snow 6 -14.4 0 -17.8 75 75 NW 10 17 29.95 1014 2 3 0.01 0.13
11:27 am 11:27 Cloudy with Light Snow 6 -14.4 0 -17.8 75 75 WNW 5 7 29.95 1014 4 6 0.01 0.13
11:42 am 11:42 Cloudy with Light Snow 7 -13.9 0 -17.8 72 72 W 10 17 29.95 1014 9 14 0.01 0.13
11:53 am 11:53 Cloudy 6 -14.4 0 -17.8 75 75 WNW 13 20 29.84 1011 10 16 0.01 0.13
12:17 pm 12:17 Cloudy with Light Snow 6 -14.4 -1 -18.3 72 72 WNW 10 17 29.96 1015 3 5 0.01 0.13
12:21 pm 12:21 Cloudy with Light Snow 6 -14.4 -1 -18.3 72 72 NW 12 19 29.95 1014 2 3 0.01 0.13
12:30 pm 12:30 Cloudy with Light Snow 6 -14.4 -1 -18.3 72 72 NW 6 9 29.95 1014 1 2 0.01 0.25
12:38 pm 12:38 Cloudy with Light Snow 6 -14.4 -1 -18.3 72 72 NW 3 6 29.95 1014 2 3 0.01 0.25
12:53 pm 12:53 Cloudy with Light Snow 6 -14.4 0 -17.8 75 75 WNW 6 9 29.82 1010 2 3 0.01 0.25
1:02 pm 13:02 Cloudy with Light Snow 6 -14.4 0 -17.8 75 75 NNW 3 6 29.92 1013 2 3 0.01 0.13
1:09 pm 13:09 Cloudy with Light Snow 6 -14.4 -1 -18.3 72 72 NNW 7 11 29.92 1013 2 3 0.01 0.13
1:27 pm 13:27 Cloudy with Light Snow 6 -14.4 -1 -18.3 72 72 WNW 6 9 29.92 1013 5 8 0.01 0.13
1:53 pm 13:53 Cloudy with Light Snow 5 -15 0 -17.8 79 79 WNW 10 17 29.83 1010 2 3 0.01 0.13
2:00 pm 14:00 Cloudy with Light Snow 5 -15 -1 -18.3 76 76 WNW 12 19 29.96 1014 2 3 0.01 0.13
2:11 pm 14:11 Cloudy with Light Snow 5 -15 -1 -18.3 76 76 NW 10 17 29.95 1014 1 2 0.01 0.13
2:41 pm 14:41 Partly Cloudy with Isolated Snow Showers 4 -15.6 -1 -18.3 80 80 NW 9 15 29.96 1014 1 1 0.01 0.25
2:53 pm 14:53 Partly Cloudy with Snow 4 -15.6 -1 -18.3 80 80 WNW 8 13 29.83 1010 1 1 0.02 0.51
3:09 pm 15:09 Partly Cloudy with Isolated Snow Showers 4 -15.6 -1 -18.3 80 80 NW 8 13 29.96 1015 1 2 0.01 0.25
3:16 pm 15:16 Partly Cloudy with Isolated Snow Showers 4 -15.6 -1 -18.3 80 80 WNW 8 13 29.96 1014 1 2 0.01 0.25
3:31 pm 15:31 Partly Cloudy with Snow 4 -15.6 -1 -18.3 80 80 WNW 8 13 29.96 1014 1 1 0.02 0.51
3:53 pm 15:53 Partly Cloudy with Isolated Snow Showers 4 -15.6 0 -17.8 83 83 WNW 5 7 29.83 1010 1 2 0.03 0.76
4:19 pm 16:19 Cloudy with Light Snow 3 -16.1 -1 -18.3 83 83 WNW 8 13 29.97 1015 2 2 0.01 0.25
4:27 pm 16:27 Cloudy with Light Snow 3 -16.1 -1 -18.3 83 83 W 6 9 29.97 1015 1 2 0.01 0.25
4:42 pm 16:42 Cloudy with Light Snow 3 -16.1 -1 -18.3 83 83 WNW 8 13 29.98 1015 2 3 0.01 0.25
4:53 pm 16:53 Cloudy with Light Snow 3 -16.1 -1 -18.3 83 83 WNW 9 15 29.85 1011 3 4 0.01 0.25
5:06 pm 17:06 Cloudy with Light Snow 3 -16.1 -1 -18.3 83 83 WNW 8 13 29.98 1015 2 2 0.01 0.25
5:29 pm 17:29 Cloudy with Light Snow 3 -16.1 -2 -18.9 79 79 NW 6 9 29.97 1015 2 3 0.01 0.25
6:53 pm 18:53 Cloudy with Light Snow 2 -16.7 -2 -18.9 83 83 WNW 8 13 29.88 1012 2 3 0.01 0.25
7:53 pm 19:53 Cloudy with Light Snow 2 -16.7 -2 -18.9 83 83 WNW 7 11 29.90 1013 3 5 0.01 0.25
8:53 pm 20:53 Cloudy with Light Snow 2 -16.7 -3 -19.4 79 79 WNW 8 13 29.94 1014 4 6 0.01 0.25
9:53 pm 21:53 Cloudy 2 -16.7 -4 -20 75 75 NNW 9 15 29.91 1013 10 16 0.01 0.13
10:39 pm 22:39 Cloudy with Light Snow 2 -16.7 -3 -19.4 79 79 NW 9 15 30.07 1018 2 3 0.01 0.13
10:53 pm 22:53 Cloudy with Light Snow 2 -16.7 -3 -19.4 79 79 NW 9 15 29.95 1014 2 2 0.01 0.13
11:16 pm 23:16 Cloudy with Light Snow 1 -17.2 -3 -19.4 83 83 NW 13 20 30.08 1019 1 2 0.01 0.25
11:25 pm 23:25 Cloudy with Light Snow 1 -17.2 -3 -19.4 83 83 NW 12 19 30.09 1019 2 2 0.01 0.25
11:40 pm 23:40 Cloudy with Light Snow 1 -17.2 -4 -20 79 79 NNW 10 17 30.11 1019 3 4 0.01 0.25
11:53 pm 23:53 Cloudy with Light Snow 1 -17.2 -3 -19.4 83 83 NW 10 17 29.99 1016 1 2 0.02 0.51

Powered by AerisWeather